www.pogodaiklimat.ru

Погода и климат >> Архив погоды >> Канада >> Henderickson Auto


ПОГОДА в Henderickson Auto

  • Прогноз погоды в Henderickson Auto
  • Монитор погоды в Henderickson Auto
  • Климат города

АРХИВ ПОГОДЫ в Henderickson Auto

Время (UTC), дата Ветер
(напр.,м/с)
 
Видим.   Явления Облачность Т
(С)
Тd
(С)
f
(%)
Тe
(С)
Тes
(С)
Комфортность P
(гПа)
Po
(гПа)
Тmin
(С)
Tmax
(С)
R
(мм)
R24
(мм)
S
(см)
06 17.06 СЗ 1 н/о н/о +2.5 +1.4 92 +2 +2 1020.5 856.5 -1.2 +19.0
09 17.06 СЗ 1 н/о н/о -1.5 -2.0 96 -2 -2 1019.9 855.9
12 17.06 З 1 н/о н/о -1.3 -1.7 97 -2 -2 1019.3 855.6 -1.8 +19.0
15 17.06 З 2 н/о н/о +17.4 +0.5 32 +18 +18 1015.9 855.5
18 17.06 З 2 н/о н/о +20.8 -3.1 20 +21 +21 комфорт 1017.6 855.2 -1.8 +21.1
21 17.06 СЗ 2 н/о н/о +23.0 -1.7 19 +22 +22 комфорт 1016.9 854.4
00 18.06 СЗ 3 н/о н/о +21.5 +1.0 26 +21 +21 комфорт 1017.2 854.4 -1.8 +23.8
03 18.06 С 1 н/о н/о +19.6 +3.3 34 +21 +21 комфорт 1014.8 855.0
06 18.06 З 1 н/о н/о +8.7 +4.1 73 +8 +8 1017.3 856.0 -1.8 +23.8
09 18.06 З 1 н/о н/о +6.6 +4.4 86 +7 +7 1017.8 856.4
12 18.06 З 1 н/о н/о +3.3 +2.5 94 +3 +3 1019.6 857.2 +3.3 +23.8
15 18.06 В 1 н/о н/о +18.0 +7.4 50 +19 +19 1018.3 858.0
18 18.06 СВ 1 н/о н/о +20.9 +4.4 34 +23 +23 комфорт 1019.9 858.2 +3.1 +22.3
21 18.06 ЮВ 2 н/о н/о +25.2 +3.2 24 +24 +24 комфорт 1018.9 857.7
00 19.06 В 3 н/о н/о +23.2 +1.7 24 +22 +22 комфорт 1019.6 857.4 +3.1 +25.8
03 19.06 В 2 н/о н/о +15.4 +1.9 40 +16 +16 1016.9 857.3
06 19.06 З 1 н/о н/о +6.6 +3.5 81 +6 +6 1019.9 857.8 +3.1 +25.8
09 19.06 З 1 н/о н/о +1.7 +0.7 93 +1 +1 1019.8 857.6
12 19.06 З 1 н/о н/о +0.2 -0.3 96 -1 -1 1020.6 857.8 -0.1 +25.8
15 19.06 В 1 н/о н/о +18.9 +5.8 42 +21 +21 комфорт 1017.3 857.8
18 19.06 СВ 3 н/о н/о +24.6 +2.4 23 +24 +24 комфорт 1018.7 857.4 -0.1 +25.1
21 19.06 ЮВ 2 н/о н/о +27.3 +3.7 22 +26 +26 жарко 1018.6 857.0
00 20.06 В 2 н/о н/о +26.6 +2.5 21 +25 +25 комфорт 1017.9 856.1 -0.1 +28.0
03 20.06 В 2 н/о н/о +23.9 +3.4 26 +23 +23 комфорт 1015.1 856.1
06 20.06 штиль 0 н/о н/о +8.4 +3.4 71 +8 +8 1017.3 856.5 -0.1 +28.0
09 20.06 СЗ 1 н/о н/о +3.9 +1.9 87 +4 +4 1017.0 855.9
12 20.06 З 1 н/о н/о +3.0 +1.8 92 +1 +1 1016.8 855.6 +1.8 +28.0
15 20.06 В 1 н/о н/о +20.7 +9.2 48 +24 +24 комфорт 1013.9 855.4
18 20.06 В 2 н/о н/о +25.7 +3.6 24 +25 +25 комфорт 1014.7 854.5 +1.8 +26.5
21 20.06 СВ 2 н/о н/о +26.3 +3.3 23 +25 +25 комфорт 1014.1 853.4
00 21.06 СЗ 3 н/о н/о +24.2 +5.5 30 +24 +24 комфорт 1014.6 853.3 +1.8 +27.5
03 21.06 СЗ 2 н/о н/о +19.5 +6.8 44 +21 +21 комфорт 1012.1 853.2
06 21.06 ЮЗ 1 н/о н/о +15.7 +8.0 60 +16 +16 1012.0 853.3 +1.8 +27.5
09 21.06 З 1 н/о н/о +11.7 +8.0 78 +12 +12 1011.3 852.2
12 21.06 З 1 н/о н/о +9.9 +7.7 86 +9 +9 1012.1 852.3 +9.0 +27.5
15 21.06 З 1 н/о н/о +17.6 +8.9 57 +19 +19 1011.6 852.3
18 21.06 СЗ 3 н/о н/о +20.4 +8.5 46 +22 +22 комфорт 1011.9 852.4 +9.0 +21.8
21 21.06 СЗ 3 н/о н/о +19.9 +9.7 52 +21 +21 комфорт 1013.2 852.9
00 22.06 З 2 н/о н/о +20.7 +6.9 41 +23 +23 комфорт 1011.2 851.0 +9.0 +22.1
03 22.06 З 4 н/о н/о +17.6 +6.5 48 +17 +17 1011.0 851.5
06 22.06 СЗ 1 н/о н/о +12.7 +8.4 75 +13 +13 1011.6 851.7 +9.0 +22.1 3
09 22.06 З 1 н/о н/о +10.2 +7.7 84 +10 +10 1011.5 851.2
12 22.06 СЗ 2 н/о н/о +10.9 +6.4 74 +10 +10 1011.3 851.2 +9.3 +22.1
15 22.06 СЗ 2 н/о н/о +15.1 +7.4 60 +15 +15 1011.0 851.2
18 22.06 З 3 н/о н/о +19.7 +5.5 39 +21 +21 комфорт 1010.8 850.9 +9.3 +19.7
21 22.06 СЗ 3 н/о н/о +19.6 +5.8 40 +21 +21 комфорт 1010.1 849.9
00 23.06 СЗ 2 н/о н/о +19.7 +3.3 34 +21 +21 комфорт 1009.1 849.3 +9.3 +22.1
03 23.06 З 2 н/о н/о +18.5 +6.0 44 +20 +20 1009.1 849.7
06 23.06 СЗ 1 н/о н/о +10.7 +5.1 68 +11 +11 1010.4 850.3 +9.3 +22.1 19
09 23.06 СЗ 1 н/о н/о +9.5 +8.0 90 +9 +9 1011.5 851.0
12 23.06 СЗ 2 н/о н/о +11.6 +6.4 70 +11 +11 1012.1 851.9 +8.3 +22.1
15 23.06 СЗ 1 н/о н/о +14.4 +7.5 63 +15 +15 1012.8 852.7
18 23.06 СЗ 4 н/о н/о +18.8 +4.9 40 +19 +19 1013.6 852.9 +8.3 +18.8
21 23.06 З 4 н/о н/о +19.1 +5.0 39 +20 +20 1014.0 853.1
00 24.06 СЗ 2 н/о н/о +20.3 +4.3 35 +22 +22 комфорт 1012.9 852.6 +8.3 +22.1
03 24.06 З 3 н/о н/о +19.3 +1.7 31 +20 +20 1013.4 853.3

 

Местоположение метеостанции Henderickson Auto (Канада): широта 53.78 долгота -118.40 высота над уровнем моря 1432 м.

В архиве по умолчанию представлена погода в Henderickson Auto за последнюю неделю. Архивные данные за месяц целиком и за предыдущие месяцы, начиная с января 2011 года, Вы можете получить, выбрав интересующий диапазон дат из раскрывающегося списка и нажав кнопку "Ввод!".


*Определитесь, кто Вы:
робот инопланетянин человек

Внимание! Время в таблицах - всемирное. Для получения местного времени необходимо прибавить поправку, которая в Henderickson Auto равна -7 ч.

Смотрите также архив погоды в соседних городах и на ближайших метеорологических станциях:

Погода в Willow Creek 1 (Канада) (45 км)
Погода в Jasper Warden (Канада) (98 км)
Погода в Jasper (Канада) (104 км)
Погода в Edson AB (Канада) (134 км)
Погода в Grande Prairie (Канада) (158 км)
Погода в Valley View Agdm (Канада) (166 км)
Погода в Beaverlodge Cda (Канада) (171 км)
Погода в Teepee Creek Agcm (Канада) (175 км)
Погода в Whitecourt (Канада) (181 км)
Погода в Whitecourt Alta (Канада) (181 км)

Пояснения к столбцам:

Ветер - указаны скорость ветра в м/с - средняя за 10 мин, порывы в срок и между сроками (в фигурных скобках) и направление, откуда дует ветер: С - северный, СВ - северо-восточный, В - восточный, ЮВ - юго-восточный, Ю - южный, ЮЗ - юго-западный, З - западный, СЗ - северо-западный.
Видимость - горизонтальная дальность видимости в метрах или километрах. При видимости от 1 до 10 км при отсутствии осадков обычно наблюдается дымка, при ухудшении видимости до 1 км и менее - туман. В сухую погоду видимость может ухудшаться дымом, пылью или мглою.
Явления - указаны атмосферные явления, наблюдавшиеся в срок или в последний час перед сроком; фигурными скобками обозначены явления, наблюдавшиеся между сроками (за 1-3 часа до срока); квадратными скобками обозначены град или гололедные отложения с указанием их диаметра в мм.
Облачность - указаны через наклонную черту общая и нижняя облачность в баллах и высота нижней границы облаков в метрах; квадратными скобками обозначены формы облаков: Ci - перистые, Cs - перисто-слоистые, Cc - перисто-кучевые, Ac - высококучевые, As - высокослоистые, Sc - слоисто-кучевые, Ns - слоисто-дождевые, Cu - кучевые, Cb - кучево-дождевые. Подробнее классификацию облаков см. в Атласе облаков (PDF).
T - Температура воздуха - температура, измеренная на высоте 2 м над землей.
Td - Температура точки росы - температура, при понижении до которой содержащийся в воздухе водяной пар достигнет насыщения.
f - Относительная влажность воздуха - влажноcть воздуха, измеренная на высоте 2 м над землей.
Te - Эффективная температура - температура, которую ощущает одетый по сезону человек в тени. Характеристика душности погоды. При расчете учитывается влияние влажности воздуха и скорости ветра на теплоощущения человека.
Tes - Эффективная температура на солнце - температура, которую ощущает человек, с поправкой на солнечный нагрев. Характеристика знойности погоды. Зависит от высоты солнца над горизонтом, облачности и скорости ветра. Ночью, в пасмурную погоду, а также при ветре 12 м/с и более поправка равна нулю.
P - Атмосферное давление - приведенное к уровню моря атмосферное давление.
Po - Атмосферное давление - измеренное на уровне метеостанции атмосферное давление.
Tmin - Минимальная температура - минимум температуры воздуха на высоте 2 м над землей.
Tmax - Максимальная температура - максимум температуры воздуха на высоте 2 м над землей.
R - Количество осадков - Количество выпавших осадков за период времени, мм. При наведении курсора мыши на число - период времени, за который выпало указанное количество осадков.
R24 - Количество осадков - Количество выпавших осадков за 24 часа, мм.
S - Снежный покров - Высота снежного покрова, см. При наведении курсора мыши на число - состояние снежного покрова и степень покрытия местности в баллах.